Weather observations for the past three days for
Greater Kankakee Airport
Imperial (Metric)
Date Time (cdt) Wind (mph) Vis. (mi.) Weather Sky Cond. Temperature (ºF) Relative Humidity Wind Chill (°F) Heat Index (°F) Pressure Precipitation (in)
Air Dwpt 6 hour altimeter (in) sea level (mb) 1 hr 3 hr 6 hr
Max. Min.
15 17:55 S 7 10.00 Fair CLR 88.5 80.4 77% 106 29.75 0.0
15 17:35 S 9 10.00 Partly Cloudy SCT027 SCT040 88.3 80.1 77% 105 29.77 0.0
15 17:15 S 6 10.00 Partly Cloudy SCT027 SCT040 87.8 79.3 76% 103 29.79 0.0
15 16:55 S 9 10.00 Partly Cloudy SCT027 SCT035 SCT041 88.2 78.1 72% 102 29.8 0.0
15 16:35 S 7 10.00 Partly Cloudy SCT027 SCT033 SCT041 88.5 77.7 70% 102 29.8 0.0
15 16:15 SW 7 10.00 Partly Cloudy SCT027 SCT033 88.3 77.2 70% 101 29.8 0.0
15 15:55 S 6 10.00 Partly Cloudy SCT031 88.5 77.5 70% 102 29.81 0.0
15 15:35 W 6 10.00 Partly Cloudy SCT026 SCT033 89.1 77.4 68% 102 29.83 0.0
15 15:15 SW 7 10.00 Partly Cloudy SCT026 SCT033 89.2 77.2 68% 102 29.83 0.0
15 14:55 NW 7 10.00 Partly Cloudy SCT026 SCT032 88.7 77.2 69% 101 29.85 0.0
15 14:35 S 6 10.00 Mostly Cloudy SCT025 BKN033 BKN038 87.8 78.1 73% 101 29.86 0.0
15 14:15 SW 7 10.00 Overcast BKN025 OVC035 87.6 77.4 72% 100 29.87 0.0
15 13:55 SW 7 10.00 Mostly Cloudy BKN023 BKN032 87.6 77.4 72% 100 29.87 0.0
15 13:35 S 6 10.00 Mostly Cloudy SCT023 BKN030 87.1 77 72% 99 29.88 0.0
15 13:15 S 8 10.00 Mostly Cloudy BKN023 85.8 76.6 74% 96 29.88 0.0
15 12:55 S 5 10.00 Partly Cloudy SCT023 86 76.5 86 68.9 73% 97 29.88 0.0
15 12:35 SW 6 10.00 Partly Cloudy SCT021 SCT028 85.5 76.1 74% 95 29.88 0.0
15 12:15 SW 7 10.00 Mostly Cloudy BKN021 BKN028 85.1 76.3 75% 95 29.89 0.0
15 11:55 SW 5 10.00 Mostly Cloudy BKN021 BKN027 84.2 76.5 78% 94 29.9 0.0
15 11:35 SW 6 10.00 Mostly Cloudy BKN021 BKN027 83.1 75.9 79% 91 29.91 0.0
15 11:15 SW 7 10.00 Overcast OVC017 82.4 75.2 79% 89 29.9 0.0
15 10:55 SW 7 10.00 Mostly Cloudy BKN017 BKN024 82 74.7 78% 88 29.9 0.0
15 10:35 SW 7 10.00 Mostly Cloudy SCT015 BKN024 81.1 75 82% 87 29.9 0.0
15 10:15 SW 7 10.00 Overcast OVC024 78.4 72.7 83% 81 29.89 0.0
15 09:55 SW 5 10.00 Overcast OVC026 77 71.8 84% 78 29.89 0.0
15 09:35 SW 7 10.00 Overcast OVC026 76.1 71.4 86% 77 29.89 0.0
15 09:15 SW 9 10.00 Overcast OVC028 75.6 70.7 85% 76 29.9 0.0
15 08:55 Calm 10.00 Overcast OVC028 73.6 70.2 89% 29.9 0.0
15 08:35 SW 3 10.00 Overcast OVC026 72.3 69.1 90% 29.9 0.0
15 08:15 W 3 10.00 Overcast OVC026 71.6 68.9 91% 29.9 0.0
15 07:55 SW 5 10.00 Overcast OVC024 71.1 68.2 91% 29.9 0.0
15 07:35 SW 5 10.00 Overcast OVC024 70.2 67.6 92% 29.9 0.0
15 07:15 SW 7 10.00 Overcast OVC024 69.1 67.1 93% 29.9 0.0
15 06:55 S 7 10.00 Overcast OVC024 68.9 67.1 68.9 66.9 94% 29.9 0.0 0.37
15 06:35 S 6 10.00 Overcast OVC024 68 66.2 94% 29.9 0.0
15 06:15 S 3 10.00 Mostly Cloudy BKN024 67.3 65.7 95% 29.9 0.0
15 05:55 Calm 10.00 Fair CLR 67.1 65.5 95% 29.9 0.0
15 05:35 SE 5 10.00 Fair CLR 67.1 65.3 94% 29.89 0.0
15 05:15 SE 6 10.00 Partly Cloudy SCT085 67.1 65.5 95% 29.9 0.0
15 04:55 SE 3 10.00 Overcast SCT070 OVC085 67.3 65.7 95% 29.9 0.0
15 04:35 SE 3 10.00 Overcast OVC070 67.5 66 95% 29.9 0.0
15 04:15 Calm 10.00 Partly Cloudy SCT070 67.1 65.7 95% 29.91 0.0
15 03:55 E 3 10.00 Fair CLR 67.3 65.7 95% 29.9 0.0 0.01 0.37
15 03:35 Calm 10.00 Fair CLR 67.5 66.2 96% 29.89 0.0 0.01
15 03:15 Calm 10.00 Thunderstorm Light Rain in Vicinity SCT008 SCT050 BKN120 67.5 66 95% 29.9 0.0 0.01
15 02:55 W 3 10.00 Light Rain BKN006 BKN060 OVC120 67.6 66.2 95% 29.91 0.0 0.06
15 02:35 NW 12 10.00 Thunderstorm Light Rain SCT006 BKN085 OVC110 67.5 66.2 96% 29.93 0.0 0.06
15 02:15 S 9 7.00 Rain OVC100 67.3 65.7 95% 29.85 0.0 0.04
15 01:55 Calm 10.00 Rain BKN100 67.3 65.8 95% 29.89 0.0 0.3
15 01:35 S 7 10.00 Light Rain SCT010 SCT034 SCT070 67.1 65.5 95% 29.89 0.0 0.27
15 01:15 N 5 G 17 3.00 Thunderstorm Heavy Rain SCT010 BKN026 OVC075 67.1 65.7 95% 29.92 0.0 0.27
15 00:55 W 14 G 17 5.00 Thunderstorm Heavy Rain SCT013 BKN039 OVC049 69.4 67.8 86.4 69.4 95% 29.97 0.0 0.44 0.44
15 00:35 W 6 10.00 Thunderstorm Light Rain SCT009 SCT028 OVC049 69.8 67.8 93% 29.92 0.0 0.05
15 00:15 NW 15 G 29 10.00 Thunderstorm Rain in Vicinity SCT021 BKN030 OVC045 70.7 67.5 90% 29.93 0.0
14 23:55 NW 20 G 28 10.00 Thunderstorm BKN021 BKN038 OVC060 76.5 66.6 72% 78 29.92 0.0
14 23:35 SW 13 G 17 10.00 Thunderstorm in Vicinity SCT041 OVC060 81.9 75.4 81% 89 29.89 0.0
14 23:15 S 12 10.00 Partly Cloudy SCT060 81.9 75.2 80% 89 29.88 0.0
14 22:55 S 14 G 20 10.00 Fair CLR 81.9 74.8 79% 88 29.89 0.0
14 22:35 S 12 G 16 10.00 Fair CLR 81.7 74.8 80% 88 29.9 0.0
14 22:15 SW 10 10.00 Fair CLR 81.3 75.2 82% 88 29.89 0.0
14 21:55 S 9 10.00 Fair CLR 80.6 75.4 84% 86 29.88 0.0
14 21:35 S 12 10.00 Fair CLR 80.6 75.7 85% 86 29.88 0.0
14 21:15 S 10 10.00 Fair CLR 81 75.6 84% 87 29.88 0.0
14 20:55 S 7 10.00 Fair CLR 81.5 75.4 82% 88 29.89 0.0
14 20:35 S 8 10.00 Fair CLR 81.5 74.8 80% 88 29.89 0.0
14 20:15 S 8 10.00 Fair CLR 82.6 73.9 75% 89 29.89 0.0
14 19:55 S 8 10.00 Fair CLR 84 73.8 71% 91 29.9 0.0
14 19:35 S 8 10.00 Fair CLR 85.1 74.3 70% 93 29.92 0.0
14 19:15 SW 12 10.00 Fair CLR 86 74.7 69% 95 29.92 0.0
14 18:55 S 9 G 16 10.00 Fair CLR 86.5 74.8 88.5 81.9 68% 96 29.92 0.0
14 18:35 SW 9 10.00 Partly Cloudy SCT029 87.3 75.7 69% 98 29.93 0.0
14 18:15 S 9 10.00 Mostly Cloudy BKN031 87.8 76.6 70% 99 29.92 0.0
14 17:55 S 10 G 16 10.00 Partly Cloudy SCT031 87.4 75.9 69% 98 29.93 0.0
14 17:35 S 9 10.00 Fair CLR 87.3 75.2 67% 97 29.93 0.0
14 17:15 S 10 10.00 Fair CLR 87.1 74.1 65% 96 29.93 0.0
14 16:55 SW 10 G 17 10.00 Fair CLR 87.4 73.2 63% 95 29.93 0.0
14 16:35 S 10 10.00 Fair CLR 87.3 73.4 64% 95 29.93 0.0
14 16:15 S 9 10.00 Fair CLR 87.8 73.2 62% 96 29.94 0.0
14 15:55 S 9 10.00 Fair CLR 87.8 73.4 62% 96 29.95 0.0
14 15:35 S 8 10.00 Fair CLR 86.2 72.7 64% 93 29.96 0.0
14 15:15 S 8 10.00 Fair CLR 86.2 73.4 66% 94 29.97 0.0
14 14:55 SW 10 10.00 Fair CLR 86.5 73.6 65% 94 29.96 0.0
14 14:35 SW 8 10.00 Fair CLR 85.1 73.4 68% 92 29.97 0.0
14 14:15 SW 6 10.00 Fair CLR 82.4 72.1 71% 87 29.97 0.0
14 13:55 SW 13 10.00 Fair CLR 82.8 71.6 69% 88 29.98 0.0
14 13:35 SW 8 10.00 Fair CLR 84.2 71.6 66% 90 29.97 0.0
14 13:15 W 7 10.00 Fair CLR 83.5 70.9 66% 88 29.97 0.0
14 12:55 SW 6 10.00 Fair CLR 82.6 71.4 82.6 70.5 69% 87 29.97 0.0 0.09
14 12:35 W 7 10.00 Fair CLR 81.3 70.9 71% 85 29.97 0.0
14 12:15 S 12 10.00 Fair CLR 79.2 71.2 77% 82 29.92 0.0
14 11:55 S 7 10.00 Fair CLR 77.4 71.6 83% 79 29.93 0.0
14 11:35 S 6 10.00 Mostly Cloudy SCT025 SCT032 BKN038 75.6 70 83% 76 29.95 0.0
14 11:15 SW 7 10.00 Mostly Cloudy SCT032 BKN043 BKN060 73.9 69.8 87% 30.01 0.0
14 10:55 W 6 10.00 Thunderstorm Light Rain in Vicinity SCT046 BKN075 OVC100 72.7 69.6 90% 30.05 0.0
14 10:35 W 9 10.00 Mostly Cloudy BKN080 BKN100 73.9 68 82% 30.09 0.0
14 10:15 E 3 10.00 Thunderstorm in Vicinity SCT080 SCT100 BKN120 74.3 69.1 84% 30.05 0.0
14 09:55 N 12 10.00 Thunderstorm in Vicinity SCT017 SCT042 BKN080 71.6 69.3 92% 30.07 0.0 0.08 0.08
14 09:35 N 21 G 25 7.00 Thunderstorm Heavy Rain in Vicinity and Breezy NULL 75.4 72 89% 75 30.08 0.0 0.06
14 09:15 W 10 10.00 Mostly Cloudy SCT018 BKN025 BKN041 78.1 73.4 86% 81 30.05 0.0
14 08:55 SW 8 10.00 Partly Cloudy SCT070 78.4 73 84% 81 30.03 0.0
14 08:35 S 9 10.00 Fair CLR 78.1 72.7 84% 81 30.03 0.0
14 08:15 S 8 10.00 Partly Cloudy SCT050 75.9 71.8 87% 76 30.03 0.0
14 07:55 S 6 10.00 Partly Cloudy SCT050 73.9 70.3 89% 30.03 0.0
14 07:35 S 8 10.00 Partly Cloudy SCT055 72.3 69.1 90% 30.03 0.0
14 07:15 S 8 10.00 Overcast OVC055 70.7 68.2 92% 30.04 0.0
14 06:55 SE 7 10.00 Overcast SCT036 SCT043 OVC055 70.3 68 78.8 67.5 92% 30.05 0.0
14 06:35 SE 8 10.00 Overcast BKN034 BKN046 OVC055 69.4 67.1 92% 30.05 0.0
14 06:15 E 6 10.00 Partly Cloudy SCT036 SCT055 68.7 66.7 93% 30.05 0.0
14 05:55 NE 7 10.00 Mostly Cloudy SCT026 BKN045 68 66.4 95% 30.04 0.0
14 05:35 SE 9 10.00 Partly Cloudy SCT028 SCT045 67.6 66.2 95% 30.04 0.0
14 05:15 SE 9 10.00 Fair CLR 67.6 66.2 95% 30.04 0.0
14 04:55 SE 8 10.00 Fair CLR 67.6 66.2 95% 30.03 0.0
14 04:35 SE 7 10.00 Partly Cloudy SCT019 67.5 66.2 96% 30.03 0.0
14 04:15 SE 6 10.00 Mostly Cloudy BKN019 67.6 66.2 95% 30.04 0.0
14 03:55 SE 8 10.00 Mostly Cloudy BKN021 67.8 66.2 95% 30.04 0.0
14 03:35 E 7 10.00 Mostly Cloudy BKN021 BKN027 68 66.4 95% 30.05 0.0
14 03:15 E 8 10.00 Overcast OVC019 68.4 66.4 93% 30.07 0.0
14 02:55 E 9 10.00 Thunderstorm in Vicinity OVC017 68.9 66.4 92% 30.08 0.0
14 02:35 NE 9 10.00 Thunderstorm in Vicinity OVC017 69.3 66 89% 30.1 0.0
14 02:15 NE 9 G 18 10.00 Thunderstorm OVC015 70.7 65.1 83% 30.09 0.0
14 01:55 NE 9 10.00 Overcast BKN015 BKN039 OVC100 72 65.8 81% 30.09 0.0
14 01:35 NE 7 10.00 Overcast OVC100 77.4 74.5 91% 79 30.09 0.0
14 01:15 SW 5 10.00 Overcast OVC100 78.8 74.3 86% 82 30.07 0.0
14 00:55 SW 7 10.00 Overcast OVC100 78.6 73.9 81.9 77.9 86% 82 30.07 0.0
14 00:35 SW 5 10.00 Partly Cloudy SCT100 78.3 73.9 87% 81 30.08 0.0
14 00:15 S 7 10.00 Fair CLR 78.1 73.9 87% 81 30.08 0.0
13 23:55 SW 6 10.00 Fair CLR 78.4 73.9 86% 81 30.09 0.0
13 23:35 S 9 10.00 Fair CLR 78.3 73.8 86% 81 30.08 0.0
13 23:15 S 7 10.00 Fair CLR 78.1 73.8 87% 81 30.07 0.0
13 22:55 S 9 10.00 Fair CLR 77.9 73.9 88% 80 30.07 0.0
13 22:35 S 6 10.00 Fair CLR 78.1 73.8 87% 81 30.08 0.0
13 22:15 S 5 10.00 Fair CLR 78.6 73.4 84% 82 30.09 0.0
13 21:55 S 5 10.00 Fair CLR 79 73.4 83% 82 30.09 0.0
13 21:35 S 7 10.00 Fair CLR 79.5 73.4 82% 83 30.08 0.0
13 21:15 S 8 10.00 Fair CLR 80.1 73.4 80% 84 30.07 0.0
13 20:55 S 8 10.00 Fair CLR 80.6 73.4 79% 85 30.05 0.0
13 20:35 S 5 10.00 Fair CLR 80.8 73.4 78% 86 30.07 0.0
13 20:15 S 8 10.00 Fair CLR 81.7 73.2 76% 87 30.07 0.0
13 19:55 S 7 10.00 Fair CLR 81.5 73.8 77% 87 30.07 0.0
13 19:35 S 5 10.00 Partly Cloudy SCT075 SCT120 80.8 74.3 81% 86 30.07 0.0
13 19:15 Calm 10.00 Light Rain SCT065 SCT080 BKN085 81.9 74.1 77% 88 30.08 0.0
13 18:55 SE 5 10.00 Partly Cloudy SCT110 81.9 73.9 88.7 81.9 77% 88 30.08 0.0
13 18:35 S 3 10.00 Thunderstorm in Vicinity SCT110 83.3 73.6 73% 90 30.09 0.0
13 18:15 S 5 10.00 Fair CLR 83.5 73.4 72% 90 30.09 0.0
13 17:55 S 5 10.00 Fair CLR 83.8 72.7 69% 90 30.1 0.0
13 17:35 S 5 10.00 Fair CLR 84.6 72.1 66% 90 30.1 0.0
13 17:15 S 6 10.00 Fair CLR 85.8 72.3 64% 92 30.1 0.0
13 16:55 SW 10 10.00 Fair CLR 86.5 71.6 61% 93 30.11 0.0
13 16:35 SW 9 10.00 Fair CLR 87.6 71.6 59% 94 30.11 0.0
13 16:15 SW 9 10.00 Fair CLR 87.8 70.5 57% 93 30.11 0.0
13 15:55 SW 8 10.00 Fair CLR 88.5 69.3 53% 93 30.12 0.0
13 15:35 SW 9 10.00 Partly Cloudy SCT041 88.7 68.7 52% 93 30.12 0.0
13 15:15 SW 8 10.00 Fair CLR 88.5 69.1 53% 93 30.13 0.0
13 14:55 SW 9 10.00 Fair CLR 88.3 68.7 52% 93 30.13 0.0
13 14:35 SW 12 10.00 Fair CLR 87.8 67.8 52% 91 30.14 0.0
13 14:15 SW 10 10.00 Fair CLR 88 68.9 53% 92 30.14 0.0
13 13:55 S 10 10.00 Partly Cloudy SCT037 87.6 68.5 53% 92 30.14 0.0
13 13:35 S 12 10.00 Partly Cloudy SCT035 86.5 70 58% 91 30.13 0.0
13 13:15 S 9 10.00 Partly Cloudy SCT031 SCT037 86 72.5 64% 93 30.14 0.0
13 12:55 S 10 10.00 Mostly Cloudy SCT029 BKN037 85.5 72.7 85.6 68.7 66% 92 30.15 0.0
13 12:35 S 7 10.00 Mostly Cloudy SCT029 BKN039 85.1 72.5 66% 91 30.15 0.0
13 12:15 S 7 10.00 Partly Cloudy SCT027 SCT034 SCT042 84.9 72.9 67% 92 30.17 0.0
13 11:55 S 9 10.00 Partly Cloudy SCT027 84.6 72.3 67% 91 30.17 0.0
13 11:35 S 9 10.00 Fair CLR 83.5 70.9 66% 88 30.17 0.0
13 11:15 S 6 10.00 Fair CLR 83.3 70.5 65% 88 30.18 0.0
13 10:55 S 8 10.00 Fair CLR 83.1 69.6 64% 87 30.18 0.0
13 10:35 S 5 10.00 Fair CLR 82.2 69.6 66% 86 30.17 0.0
13 10:15 S 7 10.00 Fair CLR 81.5 70 68% 85 30.17 0.0
13 09:55 S 6 10.00 Fair CLR 81 70.5 71% 85 30.17 0.0
13 09:35 S 6 10.00 Fair CLR 79.7 70.9 75% 83 30.18 0.0
13 09:15 SE 6 10.00 Partly Cloudy SCT043 78.6 71.6 79% 81 30.19 0.0
13 08:55 S 6 10.00 Partly Cloudy SCT043 77.2 70.7 81% 79 30.19 0.0
13 08:35 SE 3 10.00 Partly Cloudy SCT043 76.1 69.8 81% 77 30.19 0.0
13 08:15 SE 3 10.00 Partly Cloudy SCT041 75 70 84% 75 30.2 0.0
13 07:55 SE 3 10.00 Fair CLR 73.4 70.2 90% 30.19 0.0
13 07:35 E 3 7.00 Fair CLR 71.2 69.6 95% 30.19 0.0
13 07:15 SE 3 4.00 Fog/Mist CLR 69.6 68 95% 30.19 0.0
13 06:55 Calm 1.75 Fog/Mist SCT090 68.5 67.1 69.4 64.4 95% 30.19 0.0
13 06:35 SE 3 1.25 Fog/Mist SCT001 BKN090 67.3 65.8 95% 30.18 0.0
13 06:15 Calm 0.25 Fog OVC001 66.2 64.8 95% 30.17 0.0
13 05:55 S 3 0.15 Fog OVC001 64.9 63.5 95% 30.17 0.0
13 05:35 Calm 0.15 Fog OVC001 65.5 63.9 95% 30.17 0.0
13 05:15 Calm 0.50 Fog OVC003 65.5 63.9 95% 30.17 0.0
13 04:55 Calm 0.50 Fog OVC003 65.7 64 95% 30.17 0.0
13 04:35 Calm 0.50 Fog OVC003 64.4 63 95% 30.16 0.0
13 04:15 E 3 0.25 Fog OVC003 65.5 64 95% 30.16 0.0
13 03:55 Calm 0.75 Fog/Mist BKN003 65.8 64.4 95% 30.16 0.0
13 03:35 Calm 3.00 Fog/Mist CLR 67.1 65.7 95% 30.16 0.0
13 03:15 Calm 5.00 Fog/Mist CLR 68.2 66.6 95% 30.15 0.0
13 02:55 Calm 5.00 Fog/Mist CLR 68 66.4 95% 30.15 0.0
13 02:35 Calm 1.50 Fog/Mist SCT003 67.3 65.7 95% 30.14 0.0
13 02:15 Calm 0.75 Fog/Mist SCT003 67.1 65.7 95% 30.15 0.0
13 01:55 Calm 1.50 Fog/Mist VV007 67.8 66.2 95% 30.15 0.0
13 01:35 Calm 4.00 Fog/Mist CLR 68.4 66.7 95% 30.15 0.0
13 01:15 Calm 5.00 Fog/Mist CLR 68.9 67.3 95% 30.15 0.0
13 00:55 Calm 5.00 Fog/Mist CLR 69.4 68 82.4 69.4 95% 30.16 0.0
13 00:35 Calm 10.00 Fair CLR 69.8 68.2 95% 30.15 0.0
13 00:15 Calm 10.00 Fair CLR 70.5 68.9 95% 30.15 0.0
12 23:55 Calm 10.00 Fair CLR 70.9 69.3 95% 30.15 0.0
12 23:35 Calm 10.00 Fair CLR 72.1 69.8 92% 30.15 0.0
12 23:15 Calm 10.00 Fair CLR 71.6 69.8 94% 30.15 0.0
12 22:55 Calm 10.00 Fair CLR 71.8 70 94% 30.15 0.0
12 22:35 Calm 7.00 Fair CLR 72 70 94% 30.15 0.0
12 22:15 NE 3 10.00 Fair CLR 72.1 70.3 94% 30.15 0.0
12 21:55 NE 3 10.00 Fair CLR 71.6 70 95% 30.14 0.0
12 21:15 Calm 10.00 Fair CLR 74.5 71.2 90% 30.13 0.0
12 20:55 Calm 10.00 Fair CLR 76.1 70.2 82% 77 30.13 0.0
12 20:35 Calm 10.00 Fair CLR 76.8 71.6 84% 78 30.12 0.0
12 20:15 Calm 10.00 Fair CLR 80.1 68.2 67% 83 30.12 0.0
12 19:55 Calm 10.00 Fair CLR 81.5 67.3 62% 84 30.12 0.0
12 19:35 Calm 10.00 Fair CLR 81.5 67.8 63% 84 30.12 0.0
12 19:15 Calm 10.00 Fair CLR 81.9 67.6 62% 85 30.12 0.0
12 18:55 Calm 10.00 Fair CLR 82.4 66.6 84.4 81.9 59% 85 30.11 0.0
12 18:35 Calm 10.00 Fair CLR 82.6 66 57% 85 30.1 0.0
12 18:15 Calm 10.00 Fair CLR 83.3 66 56% 85 30.1 0.0
Date Time (cdt) Wind (mph) Vis. (mi.) Weather Sky Cond. Air Dwpt Max. Min. Relative Humidity Wind Chill (°F) Heat Index (°F) altimeter (in) sea level (mb) 1 hr 3 hr 6 hr
6 hour
Temperature (ºF) Pressure Precipitation (in)